[[{"header":{"parameterUnit":"m.s-1","parameterCategory":2,"la1":30.2992,"la2":30.254,"lo1":-89.0895,"lo2":-89.0443,"dy":0.0025,"dx":0.0025,"nx":19,"ny":19,"refTime":"2026-04-05T03:00:00:Z","depth":"0","parameterNumber":2,"parameterNumberName":"U-component_of_CURRENTS"},"data":[0,0,0,0.1397,0.1397,0.1405,0.1405,0.1498,0.1499,0,0,0,0,0,0,0,0,0,0,0,0.1394,0.1395,0.1397,0.1397,0.1405,0.1405,0.1498,0.1499,0,0,0,0,0,0,0,0,0,0,0,0.1394,0.1394,0.1395,0.1397,0.1405,0.1405,0.1497,0.1471,0,0,0,0,0,0,0,0,0,0,0.1453,0.1436,0.1394,0.1395,0.1397,0.1405,0.1405,0.1469,0.1473,0.1518,0,0.1518,0,0.1514,0.1507,0.1508,0,0,0,0.1397,0.1433,0.1438,0.1395,0.1397,0.1405,0.1401,0.147,0.1475,0.1524,0.1519,0.1522,0.1515,0.1508,0.1509,0.1624,0.1624,0,0,0.1396,0.1396,0.1435,0.1441,0.14,0.1401,0.1401,0.1472,0.1478,0.1519,0.1524,0.1517,0.1509,0.151,0.1624,0.1624,0,0,0,0.1395,0.1396,0.1397,0.1438,0.1434,0.1401,0.1402,0.1474,0.1475,0.1525,0.1518,0.1509,0.1511,0.1623,0.1624,0.161,0,0,0,0.1395,0.1395,0.1397,0.1397,0.1432,0.1442,0.1402,0.147,0.1478,0.1517,0.1509,0.1512,0.1623,0.1624,0.161,0.1614,0,0,0,0.1394,0.1395,0.1396,0.1397,0.14,0.1441,0.1445,0.1471,0.1475,0.1508,0.1512,0.1623,0.1624,0.1609,0.1613,0.164,0,0,0,0.1393,0.1393,0.1396,0.1399,0.14,0.1421,0.1444,0.147,0.1497,0.151,0.1623,0.1624,0.1609,0.1612,0.1639,0.1608,0.1609,0,0,0.1392,0.1393,0.1395,0.1398,0.1408,0.142,0.145,0.1495,0.1528,0.1605,0.1607,0.161,0.1613,0.164,0.1657,0.1656,0,0,0,0.1394,0.1393,0.1399,0.1404,0.1423,0.1447,0.1482,0.1513,0.1575,0.1548,0.1631,0.1634,0.1651,0.1631,0.1631,0.1577,0.1628,0.1628,0.1628,0.1385,0.1391,0.1394,0.1408,0.143,0.1474,0.1508,0.1562,0.1588,0.1619,0.1638,0.1671,0.1649,0.1649,0.1593,0.165,0.165,0.165,0.165,0.1371,0.1365,0.1387,0.1391,0.1428,0.146,0.1546,0.1573,0.1653,0.1656,0.1673,0.1636,0.1648,0.1589,0.165,0.165,0.165,0.165,0.165,0.1348,0.1347,0.1351,0.1365,0.14,0.1455,0.1521,0.159,0.1649,0.1674,0.1672,0.1671,0.1608,0.1685,0.1685,0.1685,0.1685,0.1685,0.1685,0.132,0.1326,0.1321,0.1344,0.1357,0.1411,0.1518,0.1572,0.1641,0.1671,0.1671,0.1615,0.1682,0.1667,0.1687,0.1687,0.1687,0.1686,0.1686,0.1289,0.1295,0.1285,0.129,0.1322,0.1342,0.1457,0.1546,0.1618,0.1635,0.1602,0.1676,0.1684,0.1683,0.167,0.1689,0.1689,0.1689,0.1689,0.1268,0.1271,0.1247,0.1244,0.1266,0.131,0.1342,0.1437,0.1526,0.1547,0.1573,0.1536,0.1538,0.1536,0.1539,0.1522,0.1504,0.1503,0.1503,0.1251,0.1247,0.1217,0.1211,0.1227,0.1254,0.1246,0.1281,0.1411,0.1491,0.1504,0.1512,0.1453,0.1461,0.1454,0.1462,0.1434,0,0]},{"header":{"parameterUnit":"m.s-1","parameterCategory":2,"la1":30.2992,"la2":30.254,"lo1":-89.0895,"lo2":-89.0443,"dy":0.0025,"dx":0.0025,"nx":19,"ny":19,"refTime":"2026-04-05T03:00:00:Z","depth":"0","parameterNumber":3,"parameterNumberName":"V-component_of_CURRENTS"},"data":[0,0,0,0.0246,0.0246,0.0245,0.0245,0.0241,0.0241,0,0,0,0,0,0,0,0,0,0,0,0.0249,0.0249,0.0246,0.0246,0.0245,0.0245,0.0241,0.0241,0,0,0,0,0,0,0,0,0,0,0,0.0249,0.0249,0.0249,0.0246,0.0245,0.0245,0.0241,0.0242,0,0,0,0,0,0,0,0,0,0,0.0244,0.0243,0.0249,0.0249,0.0246,0.0245,0.0245,0.0242,0.0242,0.0242,0,0.0244,0,0.0243,0.0241,0.0241,0,0,0,0.0245,0.0244,0.0247,0.0249,0.0246,0.0245,0.0245,0.0242,0.0242,0.0241,0.0244,0.0244,0.0243,0.0241,0.0241,0.0265,0.0265,0,0,0.0245,0.0244,0.0247,0.0247,0.025,0.0245,0.0245,0.0242,0.0242,0.0244,0.0244,0.0243,0.0241,0.0241,0.0264,0.0265,0,0,0,0.0246,0.0244,0.0247,0.0247,0.0247,0.0245,0.0245,0.0242,0.0244,0.0244,0.0242,0.0241,0.0241,0.0264,0.0264,0.0321,0,0,0,0.0246,0.0245,0.0247,0.0246,0.0247,0.0244,0.0245,0.0244,0.0244,0.0242,0.0241,0.0241,0.0264,0.0264,0.0319,0.0352,0,0,0,0.0248,0.0245,0.0247,0.0246,0.0247,0.0244,0.0245,0.0244,0.0243,0.0241,0.0241,0.0264,0.0264,0.0317,0.0348,0.0379,0,0,0,0.0245,0.0257,0.0247,0.0263,0.0247,0.0267,0.0245,0.0255,0.0257,0.0241,0.0264,0.0264,0.0316,0.0345,0.0376,0.0445,0.0461,0,0,0.0261,0.0259,0.027,0.0261,0.029,0.0267,0.0297,0.0286,0.0266,0.0263,0.0264,0.032,0.0348,0.0378,0.0483,0.0498,0,0,0,0.0276,0.0286,0.0293,0.0305,0.0312,0.0328,0.0313,0.0313,0.0316,0.027,0.0317,0.0333,0.035,0.0387,0.0399,0.0384,0.0267,0.0267,0.0267,0.0295,0.0306,0.0333,0.0349,0.0363,0.037,0.0385,0.038,0.0351,0.0363,0.0377,0.0437,0.0477,0.0486,0.047,0.037,0.037,0.037,0.037,0.0334,0.0356,0.037,0.04,0.0416,0.0439,0.0457,0.0448,0.0471,0.0431,0.0445,0.0442,0.0504,0.0481,0.0374,0.0373,0.0373,0.0372,0.0372,0.0354,0.0368,0.0384,0.0432,0.0474,0.0491,0.056,0.055,0.0527,0.0547,0.0569,0.0569,0.0551,0.0546,0.0547,0.0547,0.0547,0.0548,0.0548,0.037,0.0389,0.0428,0.0473,0.0513,0.0574,0.0625,0.0658,0.0668,0.0644,0.0644,0.0579,0.0491,0.0486,0.0552,0.0551,0.0551,0.055,0.055,0.0408,0.0412,0.0474,0.0514,0.0614,0.071,0.0748,0.0824,0.0827,0.0839,0.0743,0.0694,0.0683,0.0673,0.0672,0.0782,0.0782,0.0782,0.0782,0.0431,0.0438,0.0525,0.0602,0.07,0.0778,0.0924,0.0975,0.0925,0.0889,0.0828,0.0801,0.0792,0.0783,0.0771,0.077,0.0903,0.0903,0.0903,0.0466,0.0487,0.0555,0.0627,0.0741,0.0863,0.1005,0.1097,0.1008,0.0902,0.0795,0.079,0.0738,0.0726,0.0699,0.0683,0.0675,0,0]}],[{"header":{"parameterUnit":"m.s-1","parameterCategory":2,"la1":30.2992,"la2":30.254,"lo1":-89.0895,"lo2":-89.0443,"dy":0.0025,"dx":0.0025,"nx":19,"ny":19,"refTime":"2026-04-05T03:00:00:Z","depth":"2","parameterNumber":2,"parameterNumberName":"U-component_of_CURRENTS"},"data":[0,0,0,0.1278,0.1279,0.129,0.129,0.1363,0.1363,0,0,0,0,0,0,0,0,0,0,0,0.1275,0.1275,0.1278,0.1279,0.129,0.129,0.1362,0.1363,0,0,0,0,0,0,0,0,0,0,0,0.1275,0.1275,0.1275,0.1279,0.129,0.129,0.1362,0.1339,0,0,0,0,0,0,0,0,0,0,0.1321,0.1308,0.1275,0.1275,0.1279,0.129,0.129,0.1337,0.1341,0.1374,0,0.1376,0,0.1374,0.137,0.137,0,0,0,0.1278,0.1305,0.131,0.1275,0.1279,0.129,0.1285,0.1339,0.1342,0.1379,0.1377,0.138,0.1375,0.137,0.1371,0.147,0.1471,0,0,0.1277,0.1277,0.1308,0.1313,0.1284,0.1284,0.1285,0.134,0.1345,0.1377,0.1381,0.1376,0.1371,0.1372,0.147,0.1471,0,0,0,0.1276,0.1276,0.1279,0.131,0.1309,0.1285,0.1286,0.1343,0.1344,0.1382,0.1377,0.1371,0.1373,0.147,0.147,0.1459,0,0,0,0.1276,0.1276,0.1279,0.1279,0.1308,0.1318,0.1287,0.134,0.1346,0.1377,0.1371,0.1374,0.1469,0.147,0.1458,0.1463,0,0,0,0.1274,0.1275,0.1277,0.1279,0.1284,0.1316,0.1321,0.1341,0.1344,0.137,0.1374,0.1469,0.147,0.1457,0.1462,0.1486,0,0,0,0.1272,0.1275,0.1278,0.1282,0.1284,0.1304,0.132,0.1343,0.1365,0.1372,0.1469,0.147,0.1457,0.1461,0.1485,0.144,0.144,0,0,0.1273,0.1275,0.1278,0.128,0.1292,0.1302,0.1327,0.1364,0.1393,0.1454,0.1456,0.1458,0.1462,0.1485,0.1494,0.1492,0,0,0,0.1276,0.1277,0.1283,0.1289,0.1306,0.1327,0.1355,0.1381,0.1434,0.141,0.1481,0.1484,0.1499,0.1471,0.147,0.1475,0.1474,0.1474,0.1474,0.1269,0.1276,0.128,0.1293,0.1313,0.1351,0.138,0.1426,0.1446,0.1475,0.149,0.1524,0.1494,0.1493,0.1504,0.1504,0.1504,0.1504,0.1504,0.1258,0.1254,0.1274,0.1281,0.1313,0.1342,0.1413,0.1438,0.1507,0.1509,0.1524,0.148,0.1491,0.1503,0.1503,0.1504,0.1504,0.1504,0.1504,0.1238,0.1237,0.1244,0.1259,0.1292,0.134,0.1396,0.1457,0.1507,0.1529,0.1516,0.1515,0.1515,0.1539,0.1539,0.1539,0.1539,0.1539,0.1539,0.121,0.1218,0.1217,0.1241,0.1255,0.1303,0.1398,0.1442,0.1495,0.1516,0.1516,0.1536,0.1535,0.1519,0.1541,0.1541,0.1541,0.1541,0.154,0.1181,0.1189,0.1184,0.1191,0.1222,0.1233,0.1334,0.1401,0.1464,0.1472,0.1512,0.1512,0.1517,0.1517,0.1502,0.1519,0.1519,0.1519,0.1519,0.1161,0.1165,0.1149,0.1148,0.1166,0.1199,0.1206,0.1259,0.1358,0.1391,0.1397,0.1359,0.1363,0.1358,0.1362,0.1342,0.1318,0.1317,0.1317,0.1144,0.1142,0.1118,0.1115,0.1128,0.114,0.1102,0.1068,0.1158,0.1307,0.1342,0.1509,0.1467,0.1468,0.1471,0.1473,0.1446,0,0]},{"header":{"parameterUnit":"m.s-1","parameterCategory":2,"la1":30.2992,"la2":30.254,"lo1":-89.0895,"lo2":-89.0443,"dy":0.0025,"dx":0.0025,"nx":19,"ny":19,"refTime":"2026-04-05T03:00:00:Z","depth":"2","parameterNumber":3,"parameterNumberName":"V-component_of_CURRENTS"},"data":[0,0,0,0.0121,0.0121,0.0123,0.0123,0.0118,0.0118,0,0,0,0,0,0,0,0,0,0,0,0.0123,0.0123,0.0121,0.0121,0.0123,0.0123,0.0118,0.0118,0,0,0,0,0,0,0,0,0,0,0,0.0123,0.0123,0.0123,0.0121,0.0123,0.0123,0.0118,0.0119,0,0,0,0,0,0,0,0,0,0,0.0118,0.0118,0.0123,0.0123,0.0121,0.0123,0.0123,0.0119,0.0119,0.0117,0,0.012,0,0.0119,0.0118,0.0118,0,0,0,0.012,0.0118,0.0121,0.0123,0.0121,0.0123,0.0122,0.0119,0.0119,0.0117,0.012,0.012,0.0119,0.0118,0.0118,0.0142,0.0142,0,0,0.012,0.0119,0.0121,0.0121,0.0125,0.0122,0.0122,0.0119,0.0118,0.012,0.0119,0.0119,0.0118,0.0118,0.0141,0.0142,0,0,0,0.0121,0.0119,0.0122,0.0121,0.0122,0.0122,0.0122,0.0118,0.012,0.0119,0.0119,0.0118,0.0118,0.0141,0.0141,0.0195,0,0,0,0.012,0.012,0.0122,0.0121,0.0122,0.012,0.0121,0.0121,0.012,0.0119,0.0118,0.0118,0.0141,0.0141,0.0193,0.0222,0,0,0,0.0122,0.0119,0.0122,0.0121,0.0123,0.012,0.0122,0.0121,0.012,0.0118,0.0118,0.014,0.0141,0.0191,0.0218,0.0245,0,0,0,0.0118,0.0131,0.0122,0.0137,0.0123,0.0144,0.0122,0.0132,0.0134,0.0118,0.0141,0.0141,0.019,0.0216,0.0243,0.0284,0.0298,0,0,0.0134,0.0133,0.0144,0.0136,0.0164,0.0143,0.0172,0.0162,0.0143,0.014,0.0141,0.0193,0.0218,0.0245,0.0324,0.0336,0,0,0,0.015,0.0159,0.0166,0.0178,0.0186,0.0201,0.0189,0.0188,0.0191,0.0147,0.0192,0.0206,0.0221,0.0241,0.0251,0.0145,0.0145,0.0144,0.0144,0.0168,0.0178,0.0205,0.022,0.0234,0.0242,0.0257,0.0252,0.0225,0.0236,0.0249,0.0305,0.0327,0.0335,0.0244,0.0244,0.0244,0.0244,0.0244,0.0204,0.0224,0.0239,0.0267,0.0284,0.0307,0.0324,0.0316,0.0336,0.03,0.0312,0.0296,0.0349,0.0249,0.0248,0.0247,0.0247,0.0246,0.0246,0.0221,0.0235,0.025,0.0296,0.0337,0.0356,0.0416,0.0409,0.0388,0.0407,0.0412,0.0411,0.0339,0.0406,0.0406,0.0407,0.0407,0.0407,0.0407,0.0234,0.0253,0.0288,0.0333,0.037,0.0427,0.0474,0.0499,0.0502,0.0479,0.0479,0.0359,0.0354,0.0348,0.0411,0.041,0.041,0.041,0.0409,0.0262,0.0269,0.0324,0.0361,0.0453,0.0534,0.0572,0.0627,0.0629,0.0633,0.0518,0.0514,0.05,0.0492,0.0489,0.0585,0.0585,0.0585,0.0585,0.0279,0.0287,0.0362,0.0429,0.0517,0.0587,0.07,0.0727,0.0684,0.0637,0.0634,0.0606,0.0598,0.0587,0.0576,0.0573,0.0691,0.0691,0.0691,0.0302,0.0321,0.0377,0.0444,0.0545,0.065,0.0755,0.079,0.0718,0.0693,0.0624,0.0597,0.0547,0.0538,0.051,0.0498,0.0488,0,0]}],[{"header":{"parameterUnit":"m.s-1","parameterCategory":2,"la1":30.2992,"la2":30.254,"lo1":-89.0895,"lo2":-89.0443,"dy":0.0025,"dx":0.0025,"nx":19,"ny":19,"refTime":"2026-04-05T03:00:00:Z","depth":"4","parameterNumber":2,"parameterNumberName":"U-component_of_CURRENTS"},"data":[0,0,0,0.0962,0.0964,0.1026,0.1026,0.1055,0.1055,0,0,0,0,0,0,0,0,0,0,0,0.0945,0.0946,0.0962,0.0964,0.1026,0.1026,0.1055,0.1055,0,0,0,0,0,0,0,0,0,0,0,0.0945,0.0945,0.0946,0.0964,0.1026,0.1026,0.1055,0.102,0,0,0,0,0,0,0,0,0,0,0.0966,0.0961,0.0945,0.0946,0.0965,0.1026,0.1026,0.1019,0.1022,0.1013,0,0.1031,0,0.1042,0.1056,0.1056,0,0,0,0.0961,0.0958,0.0972,0.0946,0.0965,0.1026,0.0997,0.1021,0.1025,0.1017,0.1032,0.1033,0.1043,0.1056,0.1056,0.1089,0.1089,0,0,0.0958,0.0956,0.097,0.0975,0.0992,0.0995,0.0999,0.1024,0.1032,0.1032,0.1034,0.1043,0.1056,0.1056,0.1089,0.1089,0,0,0,0.095,0.0954,0.0968,0.0973,0.0988,0.0997,0.1002,0.1031,0.1036,0.1034,0.1044,0.1056,0.1056,0.1089,0.1089,0.1127,0,0,0,0.0948,0.0949,0.0967,0.0966,0.0988,0.1018,0.1009,0.1034,0.1038,0.1043,0.1056,0.1057,0.1088,0.1089,0.1125,0.1133,0,0,0,0.094,0.0948,0.0958,0.0966,0.0993,0.1018,0.1025,0.1036,0.1043,0.1056,0.1057,0.1088,0.1089,0.1124,0.1131,0.1149,0,0,0,0.0932,0.0946,0.0959,0.098,0.0993,0.1027,0.1025,0.1058,0.1074,0.1056,0.1088,0.1089,0.1123,0.1129,0.1147,0.0996,0,0,0,0.0939,0.0947,0.0958,0.097,0.0999,0.1017,0.1051,0.1075,0.1076,0.1075,0.1077,0.1126,0.1131,0.1148,0.1033,0,0,0,0,0.0953,0.0963,0.0974,0.0998,0.1023,0.1053,0.1078,0.1092,0.1119,0.1089,0.1127,0.1129,0.1139,0.1047,0.1092,0.1092,0.1092,0.1092,0.1092,0.095,0.0965,0.0985,0.101,0.1038,0.1083,0.1111,0.1132,0.1134,0.1157,0.1162,0.1202,0.1106,0.1167,0.1168,0.1168,0.1168,0.1168,0.1168,0.0949,0.0953,0.0989,0.1016,0.1054,0.1091,0.114,0.1163,0.1203,0.1194,0.1203,0.1095,0.1172,0.1171,0.1171,0.117,0.117,0.117,0.1169,0.0928,0.0932,0.0963,0.1004,0.1054,0.1104,0.1144,0.1198,0.1229,0.1253,0.1153,0.1224,0.1219,0.1265,0.1265,0.1265,0.1265,0.1265,0.1265,0.0887,0.0916,0.0942,0.0994,0.1025,0.1078,0.1159,0.118,0.123,0.1173,0.1267,0.1234,0.1231,0.1224,0.1267,0.1267,0.1266,0.1266,0.1266,0.085,0.0877,0.0902,0.0933,0.099,0.1013,0.1106,0.1109,0.1127,0.1101,0.1124,0.113,0.11,0.11,0.1087,0.1092,0.109,0.1088,0,0.0822,0.0837,0.0864,0.0887,0.0905,0.0965,0.0943,0.098,0.102,0.099,0.1136,0.1163,0.1166,0.1132,0.113,0.1115,0,0,0,0.08,0.0813,0.0814,0.0845,0.0855,0.0866,0.0929,0.0905,0.1014,0.0974,0.1043,0.1055,0.1178,0.1273,0.1241,0.1237,0.1225,0,0]},{"header":{"parameterUnit":"m.s-1","parameterCategory":2,"la1":30.2992,"la2":30.254,"lo1":-89.0895,"lo2":-89.0443,"dy":0.0025,"dx":0.0025,"nx":19,"ny":19,"refTime":"2026-04-05T03:00:00:Z","depth":"4","parameterNumber":3,"parameterNumberName":"V-component_of_CURRENTS"},"data":[0,0,0,0.0109,0.0109,0.0115,0.0115,0.0129,0.0129,0,0,0,0,0,0,0,0,0,0,0,0.0108,0.0109,0.0109,0.0109,0.0115,0.0115,0.0129,0.0129,0,0,0,0,0,0,0,0,0,0,0,0.0108,0.0109,0.0109,0.0109,0.0115,0.0115,0.0129,0.0123,0,0,0,0,0,0,0,0,0,0,0.0116,0.0113,0.0109,0.0109,0.0109,0.0115,0.0115,0.0123,0.0123,0.0128,0,0.0131,0,0.013,0.013,0.0131,0,0,0,0.0109,0.0112,0.0116,0.0109,0.0109,0.0115,0.0112,0.0123,0.0124,0.0129,0.0131,0.0131,0.013,0.0131,0.0131,0.017,0.017,0,0,0.0109,0.0107,0.0115,0.0117,0.0113,0.0112,0.0113,0.0123,0.0124,0.0131,0.0132,0.0131,0.0131,0.0131,0.017,0.017,0,0,0,0.0108,0.0107,0.011,0.0116,0.0116,0.0112,0.0113,0.0124,0.0126,0.0132,0.0131,0.0131,0.0131,0.017,0.017,0.0204,0,0,0,0.0108,0.0107,0.011,0.0109,0.0116,0.0119,0.0113,0.0125,0.0126,0.0131,0.0131,0.0131,0.0169,0.017,0.0202,0.0225,0,0,0,0.0108,0.0106,0.0108,0.0109,0.0112,0.0118,0.0121,0.0125,0.0125,0.0131,0.0131,0.0169,0.017,0.0201,0.0222,0.024,0,0,0,0.0105,0.0115,0.0108,0.0123,0.0112,0.0133,0.0121,0.0134,0.0141,0.0131,0.0169,0.017,0.02,0.022,0.0239,0.0225,0,0,0,0.0118,0.0117,0.0127,0.0121,0.0147,0.0132,0.0161,0.0162,0.0153,0.0165,0.0166,0.0203,0.0222,0.024,0.0268,0,0,0,0,0.0131,0.0139,0.0145,0.0158,0.0167,0.0184,0.018,0.0183,0.0196,0.016,0.0208,0.022,0.023,0.0217,0.0174,0.0173,0.0173,0.0173,0.0173,0.0145,0.0155,0.0178,0.0194,0.0209,0.0221,0.0237,0.024,0.0224,0.0237,0.0251,0.0295,0.0283,0.0251,0.0251,0.0251,0.0251,0.0251,0.0251,0.0172,0.0188,0.0206,0.0232,0.0251,0.0276,0.0296,0.0292,0.0315,0.0291,0.0298,0.0259,0.0255,0.0254,0.0254,0.0253,0.0253,0.0253,0.0253,0.0183,0.0194,0.0211,0.0254,0.0294,0.0316,0.0364,0.0366,0.0353,0.0367,0.0343,0.0321,0.0314,0.0365,0.0365,0.0365,0.0366,0.0366,0.0366,0.0186,0.0206,0.0236,0.028,0.0314,0.0365,0.0407,0.0422,0.0409,0.039,0.0377,0.0333,0.0329,0.032,0.0369,0.0368,0.0368,0.0368,0.0367,0.0196,0.0208,0.0252,0.0286,0.0367,0.0405,0.0447,0.0458,0.047,0.0451,0.0398,0.0396,0.0383,0.0378,0.037,0.0435,0.0435,0.0435,0,0.02,0.021,0.0267,0.0323,0.039,0.043,0.0464,0.0477,0.0449,0.0436,0.0453,0.0394,0.0392,0.0375,0.0371,0.0361,0,0,0,0.0207,0.0224,0.0262,0.032,0.0396,0.0441,0.0474,0.0469,0.0453,0.0458,0.0435,0.0435,0.0408,0.0377,0.0352,0.0347,0.0331,0,0]}]]